| time (UTC) | temp F | wind direction | speed MPH | gust MPH | rain 1hr in | rain 24hr in | rain mn in | humidity % | barometer mb |
| 20260904213518 | 68 | 258 | 6.0 | 8.0 | 0.00 | 0.00 | 0.00 | 72 | 1013.7 |
| 20260904212521 | 69 | 228 | 8.0 | 10.0 | 0.00 | 0.00 | 0.00 | 71 | 1013.6 |
| 20260904211518 | 69 | 227 | 5.0 | 8.0 | 0.00 | 0.00 | 0.00 | 71 | 1013.7 |
| 20260904210517 | 69 | 189 | 6.0 | 9.0 | 0.00 | 0.00 | 0.00 | 70 | 1013.6 |
| 20260904205518 | 70 | 184 | 5.0 | 7.0 | 0.00 | 0.00 | 0.00 | 69 | 1013.5 |
| 20260904204517 | 71 | 151 | 5.0 | 7.0 | 0.00 | 0.00 | 0.00 | 67 | 1013.5 |
| 20260904203517 | 71 | 172 | 3.0 | 7.0 | 0.00 | 0.00 | 0.00 | 67 | 1013.6 |
| 20260904202517 | 71 | 240 | 1.0 | 5.0 | 0.00 | 0.00 | 0.00 | 66 | 1013.6 |
| 20260904201538 | 71 | 28 | 0.0 | 3.0 | 0.00 | 0.00 | 0.00 | 66 | 1013.5 |
| 20260904200538 | 71 | 245 | 1.0 | 7.0 | 0.00 | 0.00 | 0.00 | 66 | 1013.5 |
| 20260904195540 | 71 | 0.0 | 0.0 | 0.00 | 0.00 | 0.00 | 66 | 1013.5 | |
| 20260904194518 | 72 | 157 | 1.0 | 4.0 | 0.00 | 0.00 | 0.00 | 65 | 1013.5 |
| 20260904193518 | 72 | 164 | 5.0 | 7.0 | 0.00 | 0.00 | 0.00 | 64 | 1013.5 |
| 20260904192519 | 72 | 164 | 4.0 | 5.0 | 0.00 | 0.00 | 0.00 | 63 | 1013.5 |
| 20260904191518 | 72 | 207 | 1.0 | 4.0 | 0.00 | 0.00 | 0.00 | 63 | 1013.4 |
| 20260904190519 | 73 | 166 | 1.0 | 3.0 | 0.00 | 0.00 | 0.00 | 63 | 1013.6 |
| 20260904185537 | 72 | 155 | 5.0 | 9.0 | 0.00 | 0.00 | 0.00 | 63 | 1013.6 |
| 20260904184518 | 72 | 145 | 1.0 | 5.0 | 0.00 | 0.00 | 0.00 | 66 | 1013.7 |
| 20260904183516 | 72 | 0.0 | 0.0 | 0.00 | 0.00 | 0.00 | 66 | 1013.7 | |
| 20260904182517 | 73 | 251 | 0.0 | 3.0 | 0.00 | 0.00 | 0.00 | 65 | 1013.7 |
| 20260904181517 | 73 | 127 | 3.0 | 6.0 | 0.00 | 0.00 | 0.00 | 65 | 1013.7 |
| 20260904180522 | 73 | 26 | 1.0 | 3.0 | 0.00 | 0.00 | 0.00 | 65 | 1013.6 |
| 20260904175517 | 73 | 115 | 5.0 | 7.0 | 0.00 | 0.00 | 0.00 | 65 | 1013.6 |
| 20260904174537 | 74 | 195 | 0.0 | 3.0 | 0.00 | 0.00 | 0.00 | 63 | 1013.6 |
| 20260904173518 | 73 | 110 | 3.0 | 5.0 | 0.00 | 0.00 | 0.00 | 65 | 1013.5 |
| 20260904172518 | 74 | 27 | 1.0 | 5.0 | 0.00 | 0.00 | 0.00 | 65 | 1013.4 |
| 20260904171557 | 74 | 85 | 0.0 | 3.0 | 0.00 | 0.00 | 0.00 | 63 | 1013.3 |
| 20260904170518 | 75 | 337 | 1.0 | 8.0 | 0.00 | 0.00 | 0.00 | 61 | 1013.1 |
| 20260904165517 | 76 | 0.0 | 0.0 | 0.00 | 0.00 | 0.00 | 61 | 1013.0 | |
| 20260904164518 | 77 | 12 | 1.0 | 4.0 | 0.00 | 0.00 | 0.00 | 58 | 1013.0 |
| 20260904163517 | 78 | 19 | 0.0 | 3.0 | 0.00 | 0.00 | 0.00 | 56 | 1013.1 |
| 20260904162519 | 79 | 226 | 1.0 | 5.0 | 0.00 | 0.00 | 0.00 | 53 | 1013.2 |
| 20260904161517 | 80 | 218 | 3.0 | 6.0 | 0.00 | 0.00 | 0.00 | 51 | 1013.1 |
| 20260904160518 | 79 | 278 | 2.0 | 5.0 | 0.00 | 0.00 | 0.00 | 52 | 1013.3 |
| 20260904155518 | 79 | 257 | 1.0 | 4.0 | 0.00 | 0.00 | 0.00 | 53 | 1013.3 |
| 20260904154519 | 77 | 163 | 5.0 | 8.0 | 0.00 | 0.00 | 0.00 | 53 | 1013.4 |
| 20260904153517 | 76 | 134 | 6.0 | 11.0 | 0.00 | 0.00 | 0.00 | 56 | 1013.4 |
| 20260904152519 | 77 | 213 | 20.0 | 33.0 | 0.00 | 0.00 | 0.00 | 55 | 1013.5 |
| 20260904151517 | 80 | 219 | 9.0 | 14.0 | 0.00 | 0.00 | 0.00 | 48 | 1013.3 |
| 20260904150518 | 80 | 289 | 4.0 | 8.0 | 0.00 | 0.00 | 0.00 | 46 | 1013.4 |
| 20260904145518 | 81 | 337 | 5.0 | 8.0 | 0.00 | 0.00 | 0.00 | 45 | 1013.4 |
| 20260904144518 | 81 | 321 | 4.0 | 7.0 | 0.00 | 0.00 | 0.00 | 44 | 1013.3 |
| 20260904143538 | 81 | 315 | 5.0 | 7.0 | 0.00 | 0.00 | 0.00 | 45 | 1013.3 |
| 20260904142518 | 81 | 351 | 5.0 | 7.0 | 0.00 | 0.00 | 0.00 | 44 | 1013.3 |
| 20260904141518 | 82 | 333 | 7.0 | 11.0 | 0.00 | 0.00 | 0.00 | 43 | 1013.3 |
| 20260904140519 | 83 | 313 | 4.0 | 9.0 | 0.00 | 0.00 | 0.00 | 43 | 1013.4 |
| 20260904135537 | 82 | 172 | 4.0 | 8.0 | 0.00 | 0.00 | 0.00 | 42 | 1013.5 |
| 20260904134538 | 82 | 263 | 6.0 | 9.0 | 0.00 | 0.00 | 0.00 | 43 | 1013.5 |
| 20260904133518 | 82 | 283 | 11.0 | 19.0 | 0.00 | 0.00 | 0.00 | 43 | 1013.4 |
| 20260904132518 | 84 | 313 | 10.0 | 15.0 | 0.00 | 0.00 | 0.00 | 42 | 1013.4 |
| 20260904131537 | 84 | 344 | 7.0 | 14.0 | 0.00 | 0.00 | 0.00 | 42 | 1013.4 |
| 20260904130522 | 84 | 293 | 10.0 | 23.0 | 0.00 | 0.00 | 0.00 | 43 | 1013.5 |
| 20260904125539 | 83 | 296 | 15.0 | 27.0 | 0.00 | 0.00 | 0.00 | 44 | 1013.6 |
| 20260904124516 | 83 | 271 | 20.0 | 29.0 | 0.00 | 0.00 | 0.00 | 43 | 1013.7 |
| 20260904123538 | 83 | 253 | 19.0 | 28.0 | 0.00 | 0.00 | 0.00 | 43 | 1013.8 |
| 20260904122538 | 81 | 249 | 13.0 | 21.0 | 0.00 | 0.00 | 0.00 | 45 | 1014.0 |
| 20260904121517 | 83 | 272 | 13.0 | 19.0 | 0.00 | 0.00 | 0.00 | 44 | 1014.1 |
| 20260904120518 | 82 | 314 | 6.0 | 11.0 | 0.00 | 0.00 | 0.00 | 45 | 1014.1 |
| 20260904115518 | 82 | 248 | 18.0 | 35.0 | 0.00 | 0.00 | 0.00 | 46 | 1014.2 |
| 20260904114518 | 82 | 236 | 19.0 | 28.0 | 0.00 | 0.00 | 0.00 | 45 | 1014.3 |
| 20260904113519 | 82 | 210 | 15.0 | 22.0 | 0.00 | 0.00 | 0.00 | 46 | 1014.4 |
| 20260904112518 | 82 | 199 | 23.0 | 30.0 | 0.00 | 0.00 | 0.00 | 47 | 1014.5 |
| 20260904111519 | 81 | 171 | 10.0 | 21.0 | 0.00 | 0.00 | 0.00 | 48 | 1014.7 |
| 20260904110517 | 80 | 213 | 16.0 | 30.0 | 0.00 | 0.00 | 0.00 | 49 | 1014.8 |
| 20260904105538 | 80 | 254 | 23.0 | 34.0 | 0.00 | 0.00 | 0.00 | 49 | 1014.9 |
| 20260904104519 | 80 | 204 | 7.0 | 13.0 | 0.00 | 0.00 | 0.00 | 49 | 1014.9 |
| 20260904103518 | 79 | 233 | 15.0 | 21.0 | 0.00 | 0.00 | 0.00 | 50 | 1015.0 |
| 20260904102539 | 79 | 264 | 16.0 | 31.0 | 0.00 | 0.00 | 0.00 | 51 | 1015.0 |
| 20260904101556 | 79 | 234 | 13.0 | 28.0 | 0.00 | 0.00 | 0.00 | 51 | 1015.1 |
| 20260904100519 | 79 | 280 | 19.0 | 32.0 | 0.00 | 0.00 | 0.00 | 51 | 1015.2 |
| 20260904095519 | 79 | 191 | 10.0 | 17.0 | 0.00 | 0.00 | 0.00 | 50 | 1015.4 |
| 20260904094538 | 78 | 245 | 15.0 | 23.0 | 0.00 | 0.00 | 0.00 | 53 | 1015.4 |
| 20260904093518 | 78 | 253 | 13.0 | 19.0 | 0.00 | 0.00 | 0.00 | 53 | 1015.4 |
| 20260904092538 | 77 | 234 | 13.0 | 23.0 | 0.00 | 0.00 | 0.00 | 54 | 1015.5 |
| 20260904091539 | 77 | 175 | 15.0 | 21.0 | 0.00 | 0.00 | 0.00 | 53 | 1015.6 |
| 20260904090517 | 77 | 231 | 14.0 | 25.0 | 0.00 | 0.00 | 0.00 | 55 | 1015.6 |
| 20260904085518 | 77 | 219 | 13.0 | 29.0 | 0.00 | 0.00 | 0.00 | 55 | 1015.7 |
| 20260904084518 | 76 | 158 | 11.0 | 17.0 | 0.00 | 0.00 | 0.00 | 56 | 1015.8 |
| 20260904083538 | 76 | 194 | 9.0 | 17.0 | 0.00 | 0.00 | 0.00 | 59 | 1015.8 |
| 20260904082557 | 75 | 175 | 13.0 | 20.0 | 0.00 | 0.00 | 0.00 | 61 | 1016.0 |
| 20260904081518 | 75 | 208 | 10.0 | 15.0 | 0.00 | 0.00 | 0.00 | 62 | 1016.1 |
| 20260904080558 | 73 | 255 | 10.0 | 18.0 | 0.00 | 0.00 | 0.00 | 64 | 1016.2 |
| 20260904075518 | 72 | 256 | 11.0 | 24.0 | 0.00 | 0.00 | 0.00 | 65 | 1016.3 |
| 20260904074518 | 71 | 205 | 13.0 | 20.0 | 0.00 | 0.00 | 0.00 | 68 | 1016.3 |
| 20260904073518 | 70 | 291 | 9.0 | 16.0 | 0.00 | 0.00 | 0.00 | 70 | 1016.3 |
| 20260904072518 | 69 | 301 | 10.0 | 20.0 | 0.00 | 0.00 | 0.00 | 73 | 1016.2 |
| 20260904071518 | 69 | 300 | 15.0 | 27.0 | 0.00 | 0.00 | 0.00 | 74 | 1016.3 |
| 20260904070518 | 69 | 298 | 14.0 | 23.0 | 0.00 | 0.00 | 0.00 | 74 | 1016.3 |
| 20260904065538 | 69 | 308 | 12.0 | 21.0 | 0.00 | 0.00 | 0.00 | 74 | 1016.2 |
| 20260904064519 | 68 | 270 | 9.0 | 15.0 | 0.00 | 0.00 | 0.00 | 75 | 1016.3 |
| 20260904063519 | 69 | 280 | 12.0 | 17.0 | 0.00 | 0.00 | 0.00 | 74 | 1015.9 |
| 20260904062538 | 68 | 185 | 5.0 | 15.0 | 0.00 | 0.00 | 0.00 | 73 | 1016.2 |
| 20260904061518 | 67 | 185 | 6.0 | 9.0 | 0.00 | 0.00 | 0.00 | 74 | 1016.2 |
| 20260904060558 | 67 | 259 | 5.0 | 8.0 | 0.00 | 0.00 | 0.00 | 75 | 1016.2 |
| 20260904055518 | 67 | 215 | 5.0 | 13.0 | 0.00 | 0.00 | 0.00 | 74 | 1016.2 |
| 20260904054518 | 65 | 100 | 5.0 | 15.0 | 0.00 | 0.00 | 0.00 | 78 | 1016.2 |
| 20260904053517 | 64 | 299 | 6.0 | 15.0 | 0.00 | 0.00 | 0.00 | 81 | 1016.1 |
| 20260904052519 | 63 | 161 | 6.0 | 11.0 | 0.00 | 0.00 | 0.00 | 83 | 1016.1 |
| 20260904051520 | 62 | 199 | 6.0 | 12.0 | 0.00 | 0.00 | 0.00 | 84 | 1016.0 |
| 20260904050518 | 62 | 212 | 3.0 | 7.0 | 0.00 | 0.00 | 0.00 | 86 | 1015.7 |
| 20260904045558 | 61 | 168 | 5.0 | 7.0 | 0.00 | 0.00 | 0.00 | 87 | 1016.2 |
| 20260904044518 | 60 | 149 | 7.0 | 9.0 | 0.00 | 0.00 | 0.00 | 88 | 1016.2 |
| 20260904043518 | 59 | 128 | 4.0 | 7.0 | 0.00 | 0.00 | 0.00 | 88 | 1016.3 |
| 20260904042518 | 59 | 167 | 5.0 | 13.0 | 0.00 | 0.00 | 0.00 | 88 | 1016.3 |
| 20260904041518 | 59 | 141 | 6.0 | 8.0 | 0.00 | 0.00 | 0.00 | 88 | 1016.3 |
| 20260904040518 | 60 | 155 | 2.0 | 7.0 | 0.00 | 0.00 | 0.00 | 85 | 1016.3 |
| 20260904035538 | 61 | 21 | 8.0 | 13.0 | 0.00 | 0.00 | 0.00 | 86 | 1016.1 |
| 20260904034521 | 61 | 20 | 7.0 | 11.0 | 0.00 | 0.00 | 0.00 | 85 | 1016.3 |
| 20260904033519 | 61 | 14 | 8.0 | 11.0 | 0.00 | 0.00 | 0.00 | 86 | 1016.3 |
| 20260904032518 | 60 | 353 | 7.0 | 11.0 | 0.00 | 0.00 | 0.00 | 86 | 1016.4 |
| 20260904031517 | 60 | 283 | 6.0 | 15.0 | 0.00 | 0.00 | 0.00 | 86 | 1016.5 |
| 20260904030520 | 60 | 297 | 10.0 | 13.0 | 0.00 | 0.00 | 0.00 | 85 | 1016.4 |
| 20260904025516 | 60 | 286 | 16.0 | 23.0 | 0.00 | 0.00 | 0.00 | 85 | 1016.4 |
| 20260904024519 | 60 | 280 | 16.0 | 23.0 | 0.00 | 0.00 | 0.00 | 85 | 1016.4 |
| 20260904023520 | 60 | 301 | 17.0 | 24.0 | 0.00 | 0.00 | 0.00 | 83 | 1016.4 |
| 20260904022538 | 60 | 285 | 17.0 | 23.0 | 0.00 | 0.00 | 0.00 | 84 | 1016.4 |
| 20260904021519 | 60 | 285 | 10.0 | 13.0 | 0.00 | 0.00 | 0.00 | 82 | 1016.1 |
| 20260904020519 | 61 | 322 | 6.0 | 9.0 | 0.00 | 0.00 | 0.00 | 82 | 1015.9 |
| 20260904015540 | 60 | 223 | 6.0 | 10.0 | 0.00 | 0.00 | 0.00 | 83 | 1016.0 |
| 20260904014520 | 60 | 308 | 7.0 | 12.0 | 0.00 | 0.00 | 0.00 | 83 | 1016.0 |
| 20260904013518 | 60 | 240 | 5.0 | 10.0 | 0.00 | 0.00 | 0.00 | 84 | 1015.9 |
| 20260904012538 | 60 | 360 | 3.0 | 10.0 | 0.00 | 0.00 | 0.00 | 84 | 1015.8 |
| 20260904011518 | 60 | 170 | 9.0 | 13.0 | 0.00 | 0.00 | 0.00 | 84 | 1015.9 |
| 20260904010537 | 60 | 226 | 4.0 | 9.0 | 0.00 | 0.00 | 0.00 | 83 | 1016.0 |
| 20260904005539 | 61 | 93 | 6.0 | 11.0 | 0.00 | 0.00 | 0.00 | 82 | 1015.9 |
| 20260904004539 | 61 | 106 | 6.0 | 11.0 | 0.00 | 0.00 | 0.00 | 81 | 1015.9 |
| 20260904003520 | 62 | 208 | 2.0 | 7.0 | 0.00 | 0.00 | 0.00 | 81 | 1016.0 |
| 20260904002518 | 62 | 248 | 7.0 | 9.0 | 0.00 | 0.00 | 0.00 | 81 | 1016.0 |
| 20260904001518 | 62 | 236 | 6.0 | 10.0 | 0.00 | 0.00 | 0.00 | 80 | 1015.9 |
| 20260904000519 | 62 | 316 | 5.0 | 7.0 | 0.00 | 0.00 | 0.00 | 80 | 1015.9 |
| 20260903235519 | 62 | 7 | 5.0 | 8.0 | 0.00 | 0.00 | 0.00 | 79 | 1016.0 |
| 20260903234539 | 62 | 77 | 3.0 | 6.0 | 0.00 | 0.00 | 0.00 | 79 | 1016.0 |
| 20260903233518 | 63 | 140 | 6.0 | 9.0 | 0.00 | 0.00 | 0.00 | 79 | 1016.1 |
| 20260903232520 | 64 | 235 | 6.0 | 9.0 | 0.00 | 0.00 | 0.00 | 76 | 1016.1 |
| 20260903231519 | 64 | 353 | 9.0 | 17.0 | 0.00 | 0.00 | 0.00 | 76 | 1016.2 |
| 20260903230519 | 63 | 2 | 8.0 | 13.0 | 0.00 | 0.00 | 0.00 | 78 | 1016.3 |
| 20260903225519 | 64 | 285 | 3.0 | 9.0 | 0.00 | 0.00 | 0.00 | 77 | 1016.4 |
| 20260903224517 | 65 | 345 | 7.0 | 14.0 | 0.00 | 0.00 | 0.00 | 75 | 1016.4 |
| 20260903223518 | 65 | 360 | 11.0 | 18.0 | 0.00 | 0.00 | 0.00 | 75 | 1016.3 |
| 20260903222600 | 65 | 24 | 2.0 | 11.0 | 0.00 | 0.00 | 0.00 | 74 | 1016.4 |
| 20260903221518 | 66 | 227 | 3.0 | 7.0 | 0.00 | 0.00 | 0.00 | 71 | 1016.3 |
| 20260903220539 | 67 | 335 | 6.0 | 18.0 | 0.00 | 0.00 | 0.00 | 68 | 1016.1 |
| 20260903215518 | 67 | 345 | 10.0 | 16.0 | 0.00 | 0.00 | 0.00 | 68 | 1016.0 |
| 20260903214520 | 67 | 355 | 11.0 | 15.0 | 0.00 | 0.00 | 0.00 | 70 | 1016.0 |